Location: Hanover
(52.3667°N, 9.7167°E)
Time: 06:26:43
(UTC+02:00)

Envisat - Pass Details

Date: 25 September 2024
Orbit: 762 x 764 km, 98.3° (Epoch: 04 October)

Event Time Altitude Azimuth Distance (km) Brightness Sun altitude
Rises 03:07:52 0° 27° (NNE) 3,239 7.3 -33.3°
Reaches altitude 10° 03:11:10 10° 50° (NE) 2,306 6.3 -33.0°
Maximum altitude 03:14:09 16° 86° (E) 1,942 5.5 -32.7°
Enters shadow 03:16:02 13° 111° (ESE) 2,087 5.4 -32.5°
